Location: Observatoire
(46.1952°N, 5.3391°E)
Time: 21:55:49
(UTC+01:00)

A-11 Canister half - Pass Details

Date: 26 February 2026
Orbit: 1525 x 1683 km, 47.3° (Epoch: 5 March)

Event Time Altitude Azimuth Distance (km) Brightness Sun altitude
Rises 21:22:56 0° 292° (WNW) 4,684 12.7 -31.8°
Reaches altitude 10° 21:26:13 10° 285° (WNW) 3,694 11.8 -32.3°
Maximum altitude 21:34:28 38° 222° (SW) 2,184 9.8 -33.6°
Enters shadow 21:36:51 33° 193° (SSW) 2,350 9.8 -34.0°
Drops below altitude 10° 21:42:48 10° 158° (SSE) 3,715 - -34.9°
Sets 21:46:09 0° 151° (SSE) 4,713 - -35.4°
